Zurück zum Katalog

STARLINK-37771

AktivKommunikationSSO
NORAD 69439·PAYLOAD·🇺🇸 United States

Gestartet Jun 7, 2026 von Vandenberg Space Force Base

Loading…

Nächste Überflüge (nächste 24 Stunden)

TLE

AktuellSource: CelesTrak SupGP

Epoche: Sep 15, 2026, 03:19 UTC

1 69439C 26126V   26258.13868056  .00004119  00000+0  12782-3 0  2583
2 69439  97.2849 119.4087 0002071  92.5629 143.7819 15.33444196    19

Verfolge STARLINK-37771 in Echtzeit mit AllMySat

Download on the App Store